Content
SEND FEEDBACK

United States of America Flag

LEGGETT, TEXAS


Home > North America > United States > Texas
Elevation: 53 meters     Latitude: 30 44N     Longitude: 094 56W

WEATHER
 
SELECT A DAY
Number of Records: 150,561;   Date Range: 10/20/09 - 3/22/16
 
SHARE

PRINT THIS DATA

[ ← Previous Day ]
WEATHER ALMANAC - FEBRUARY 1, 2013
[ Next Day → ]
[ °C ]   °F
Weather ElementAverageHighLow
Temperature53.1 °F69.8 °F (1:15 pm)39.2 °F (6:15 am)
Dewpoint37.3 °F42.8 °F (8:55 pm)30.2 °F (3:35 pm)
Humidity60.7 %87 % (2:15 am)23 % (3:35 pm)
Barometer30.31 in30.39 in (8:35 am)30.26 in (5:55 pm)
Wind Speed3.3 mph12.7 mph (3:35 pm)
Wind Gust19.6 mph (3:15 pm)
Weather ElementAverage
Visibility10 mi
Wind DirectionENE (81.9 °)

Weather ElementTotal
Precipitation---
Heating Degree Days10.5 (Base 65)
Growing Degree Days4.5 (Base 50)
Averaged from 68 records on February 1, 2013
WEATHER CONDITIONS BREAKOUT
WIND DIRECTION BREAKOUT
WEATHER BY HOUR - FEBRUARY 1, 2013
[ °C ]   °F
Local TimeTemperatureDewpointHumidityBarometerVisibilityWind DirectionWind SpeedGust SpeedPrecipitationEventsConditions
12:35 AM44.6 °F33.8 °F66 %30.31 in10.0 miCalmClear
12:55 AM44.6 °F33.8 °F66 %30.31 in10.0 miCalmClear
1:15 AM42.8 °F35.6 °F76 %30.31 in10.0 miCalmClear
1:35 AM42.8 °F37.4 °F81 %30.31 in10.0 miCalmClear
1:55 AM42.8 °F35.6 °F76 %30.30 in10.0 miCalmClear
2:15 AM41.0 °F37.4 °F87 %30.31 in10.0 miCalmClear
2:35 AM42.8 °F35.6 °F76 %30.31 in10.0 miCalmClear
2:55 AM41.0 °F35.6 °F81 %30.31 in10.0 miCalmClear
3:15 AM41.0 °F35.6 °F81 %30.31 in10.0 miCalmClear
3:35 AM41.0 °F35.6 °F81 %30.31 in10.0 miCalmClear
3:55 AM41.0 °F37.4 °F87 %30.31 in10.0 miCalmClear
4:15 AM41.0 °F35.6 °F81 %30.32 in10.0 miCalmClear
4:35 AM41.0 °F35.6 °F81 %30.32 in10.0 miCalmClear
4:55 AM41.0 °F37.4 °F87 %30.32 in10.0 miCalmClear
5:15 AM41.0 °F37.4 °F87 %30.33 in10.0 miCalmClear
5:35 AM41.0 °F37.4 °F87 %30.32 in10.0 miCalmClear
6:15 AM39.2 °F35.6 °F87 %30.33 in10.0 miCalmClear
6:35 AM39.2 °F35.6 °F87 %30.35 in10.0 miNNE (20°)5.8 mphClear
6:55 AM41.0 °F35.6 °F81 %30.35 in10.0 miCalmClear
7:15 AM41.0 °F35.6 °F81 %30.37 in10.0 miCalmClear
7:35 AM41.0 °F35.6 °F81 %30.37 in10.0 miCalmClear
7:55 AM41.0 °F35.6 °F81 %30.38 in10.0 miCalmClear
8:15 AM41.0 °F37.4 °F87 %30.38 in10.0 miCalmClear
8:35 AM44.6 °F37.4 °F76 %30.39 in10.0 miCalmClear
9:15 AM53.6 °F37.4 °F54 %30.38 in10.0 miCalmClear
9:35 AM55.4 °F37.4 °F51 %30.39 in10.0 miEast (90°)3.5 mphClear
9:55 AM57.2 °F37.4 °F48 %30.39 in10.0 miSE (130°)3.5 mphClear
10:15 AM59.0 °F37.4 °F45 %30.38 in10.0 miEast (100°)3.5 mphClear
10:35 AM60.8 °F37.4 °F42 %30.38 in10.0 miCalmClear
10:55 AM60.8 °F37.4 °F42 %30.38 in10.0 miCalmClear
11:15 AM64.4 °F39.2 °F40 %30.37 in10.0 miWest (260°)3.5 mphClear
11:35 AM64.4 °F39.2 °F40 %30.36 in10.0 miSSW (210°)4.6 mphClear
11:55 AM66.2 °F37.4 °F35 %30.36 in10.0 miSouth (180°)5.8 mphClear
12:15 PM68.0 °F37.4 °F33 %30.35 in10.0 miSSE (160°)4.6 mphClear
12:35 PM68.0 °F37.4 °F33 %30.34 in10.0 miSouth (170°)4.6 mphClear
12:55 PM68.0 °F35.6 °F30 %30.32 in10.0 miWSW (250°)4.6 mphClear
1:15 PM69.8 °F33.8 °F27 %30.31 in10.0 miSSW (210°)4.6 mphClear
1:35 PM69.8 °F33.8 °F27 %30.30 in10.0 miSouth (180°)6.9 mphClear
1:55 PM69.8 °F32.0 °F25 %30.29 in10.0 miSouth (180°)4.6 mphClear
2:15 PM69.8 °F32.0 °F25 %30.28 in10.0 miSouth (170°)9.2 mph17.3 mphClear
2:35 PM69.8 °F32.0 °F25 %30.28 in10.0 miSouth (190°)8.1 mphClear
2:55 PM69.8 °F32.0 °F25 %30.28 in10.0 miESE (120°)4.6 mphClear
3:15 PM69.8 °F33.8 °F27 %30.28 in10.0 miSouth (180°)11.5 mph19.6 mphClear
3:35 PM69.8 °F30.2 °F23 %30.28 in10.0 miSouth (180°)12.7 mph17.3 mphClear
3:55 PM69.8 °F30.2 °F23 %30.27 in10.0 miSSW (210°)11.5 mph18.4 mphClear
4:15 PM69.8 °F32.0 °F25 %30.27 in10.0 miSSW (200°)12.7 mphClear
4:35 PM68.0 °F33.8 °F28 %30.27 in10.0 miSouth (190°)10.4 mphClear
5:15 PM64.4 °F41.0 °F42 %30.27 in10.0 miSouth (170°)11.5 mph17.3 mphClear
5:35 PM60.8 °F41.0 °F48 %30.27 in10.0 miSouth (170°)11.5 mphClear
5:55 PM60.8 °F39.2 °F45 %30.26 in10.0 miSouth (170°)10.4 mphClear
6:15 PM59.0 °F39.2 °F48 %30.27 in10.0 miSouth (170°)8.1 mphClear
6:35 PM57.2 °F39.2 °F51 %30.27 in10.0 miSSE (160°)6.9 mphClear
6:55 PM55.4 °F41.0 °F58 %30.27 in10.0 miSouth (170°)8.1 mphClear
7:15 PM55.4 °F39.2 °F54 %30.27 in10.0 miSouth (170°)6.9 mphClear
7:35 PM55.4 °F41.0 °F58 %30.27 in10.0 miSouth (170°)6.9 mphClear
7:55 PM53.6 °F41.0 °F62 %30.28 in10.0 miSSE (160°)4.6 mphClear
8:15 PM53.6 °F41.0 °F62 %30.28 in10.0 miSSE (160°)4.6 mphClear
8:35 PM51.8 °F41.0 °F67 %30.28 in10.0 miCalmClear
8:55 PM50.0 °F42.8 °F76 %30.28 in10.0 miSSE (160°)3.5 mphClear
9:15 PM50.0 °F42.8 °F76 %30.29 in10.0 miCalmClear
9:35 PM48.2 °F41.0 °F76 %30.28 in10.0 miCalmClear
9:55 PM48.2 °F42.8 °F82 %30.29 in10.0 miCalmClear
10:15 PM48.2 °F42.8 °F82 %30.29 in10.0 miCalmClear
10:35 PM46.4 °F41.0 °F81 %30.28 in10.0 miSSE (160°)3.5 mphClear
10:55 PM46.4 °F42.8 °F87 %30.28 in10.0 miCalmClear
11:15 PM46.4 °F42.8 °F87 %30.27 in10.0 miCalmClear
11:35 PM46.4 °F41.0 °F81 %30.27 in10.0 miCalmClear
11:55 PM44.6 °F41.0 °F87 %30.28 in10.0 miCalmClear
Hourly data recorded from K6R3, located miles away from Leggett, Texas




STORIES FROM OUR PARTNERS